DELTA 1 DEB, 29184

Orbit data source: Space-Track

DELTA 1 DEB, 29184 is space debris in LEO originally from a launch on Thu, 11 Jan 1968 UTC launched from the Air Force Western Test Range (AFWTR). Debris objects in space refer to the collection of defunct objects orbiting the Earth. Examples of debris include non-operational satellites, rocket bodies, and fragments generated from explosions, collisions, or faulty payload assembly.

Loading next visibility...
Identifier
29184, 1968-002H
Orbit
LEO
Country
Flag of USUS
Related business
Manufacturer
Unknown
Mission
Spacecraft
Bus & Motor
Unknown
Mass
Unknown
Launch date (UTC)
1968-01-11 (58 years ago)
Launch vehicle
Unknown
Launch site
Air Force Western Test Range (AFWTR)
Object type
Payload
Rocket body
Debris
Shape & HBR
Unknown
Radar Cross Section
Small (<0.1 m²)

Expand to show TLE details & history
Last TLE update: 5 days ago

TLE from 5 days ago
0 DELTA 1 DEB
1 29184U 68002H   25257.00309895  .00000897  00000-0  21487-2 0  9993
2 29184 105.8197 170.8078 0265286 339.2593  19.7892 13.16276649522203
Epoch: 2025-09-14T00:04Z
TLE epoch observation values (Epoch: 2025-09-14T00:04:27.749Z)
Latitude
-0.00008°
Longitude
176.46385°
Altitude
1,012.917 km
Speed
7.436 km/s
True Right ascension
11h 23m 13s
True Declination
0° 00' 00"
Sunlit
Object was in daylight at epoch
Visualization orbit readout
Latitude
Unknown
Longitude
Unknown
Altitude
Unknown
Speed
Unknown
Apparent Right ascension
Unknown
Apparent Declination
Unknown
Sunlit
N/A
Visualization observer readout
Local Sidereal Time
05:36:52
Azimuth
Unknown
Elevation
Unknown
Doppler factor
Unknown
Orbital elements
Apogee altitude
1,397.67 km
Perigee altitude
995.769 km
Semi-major axis
7,574.857 km
Eccentricity
0.02653
Inclination
105.8197°
RAAN
170.8078°
Arg. of periapsis
339.2593°
True anomaly
20.85145°
Mean anomaly
19.7892°
Eccentric anomaly
20.31696°
Mean motion
3.29216 °/min
Orbital period
109.35 mins
BSTAR
0.0021487
Loading maneuver chart data...
Computing Atmospheric mass density...
Loading historical data...
Loading historical data...
Loading historical data...
Loading historical data...
Loading historical data...
Loading historical data...
Loading historical data...

Documentation

Showing up to 5 results
|